DUCHIFAT-1

Last updated on Fri Dec 19 2025 00:03:11 GMT+0000 (Coordinated Universal Time)

1 40021U 14033M 25352.55525931 .00031704 00000+0 76738-3 0 9998 2 40021 98.0779 24.9788 0006964 16.3390 343.8078 15.41038104627740
UTC large
Height (km)
Speed (km/s)
/
Latitude / Longitude
Inclination (degrees)
Orbital Period (minutes)
Azimuth
Elevation
Range (km)
Doppler Factor

Next 0 passes for location: London (51.5072 / 0.1276)

Sorry there are no passes over London.